Location: Halltown (historical)
(37.8931°N, 88.6903°W)
Time: 03:43:46
(UTC+00:00)

Daily predictions for brighter satellites

Satellite Brightness Start Highest point End
(mag) Time Altitude Azimuth Time Altitude Azimuth Time Altitude Azimuth
Cosmos 2084 Rocket 3.7 00:16:56 10° NNW 00:21:21 59° NE 00:25:50 10° SE
Cosmos 807 4.4 00:18:56 10° S 00:21:53 51° E 00:25:21 10° NNE
Cosmos 1937 Rocket 3.6 00:17:27 10° SSW 00:22:43 90° WNW 00:27:58 10° NNE
Cosmos 1544 4.2 00:20:30 10° SSW 00:24:03 50° W 00:27:38 10° N
CZ-4 R/B 4.5 00:20:01 10° SSE 00:24:08 88° W 00:28:16 10° NNW
USA 234 4.4 00:21:38 10° ENE 00:26:20 21° ESE 00:31:01 10° SSE
Cosmos 2112 Rocket 4.1 00:23:39 10° NNW 00:28:53 85° WSW 00:34:07 10° SSE
CZ-2C R/B 1.3 00:25:55 10° WSW 00:29:33 53° S 00:32:43 11° ESE
Cosmos 1939 Rocket 3.5 00:25:48 10° S 00:29:52 63° W 00:34:00 10° NNW
Cosmos 1943 3.2 00:24:29 10° NNW 00:30:07 66° ENE 00:35:44 10° SSE
Cosmos 1680 Rocket 4.0 00:26:46 10° NNW 00:31:58 67° WSW 00:37:09 10° S
CSL-04 Debris 4.3 00:31:16 10° SSE 00:36:30 55° ENE 00:41:45 10° N
Iridium 4 Rocket 3.7 00:32:52 10° S 00:37:43 76° W 00:43:05 10° N
Cosmos 1975 Rocket 3.0 00:35:39 10° N 00:39:56 63° E 00:44:13 10° SSE
Helios 1A Rocket 4.2 00:37:07 10° S 00:41:02 45° W 00:45:00 10° NNW
CSL-04 Rocket 3.7 00:37:59 10° SSE 00:43:16 60° ENE 00:48:40 10° N
Cosmos 1174 4.5 00:42:31 10° SSW 00:47:01 58° ESE 00:52:44 10° NE
Cosmos 1603 4.0 00:46:23 10° NNW 00:52:00 69° WSW 00:57:33 10° S
HJ-1C 3.2 00:54:11 10° SSE 00:57:27 69° ENE 01:00:44 10° N
H-2A R/B 1.9 00:53:16 10° SSE 00:58:09 67° ENE 01:03:11 10° N
Meteor 1-21 4.4 00:52:51 10° NNW 00:58:27 77° W 01:04:01 10° S
Cosmos 1072 Rocket 4.4 00:53:41 10° S 00:59:51 74° E 01:06:11 10° N
Sich 1 Rocket 3.8 00:56:12 10° S 01:00:40 77° W 01:05:12 10° N
ATLAS 2AS CENTAUR R/B 3.8 00:54:29 10° SSE 01:00:48 27° ESE 01:07:11 10° NE
BREEZE-M TANK 3.9 00:46:28 10° WSW 01:01:35 75° NNW 01:05:14 14° ENE
Nadezhda 4 Rocket 4.4 00:57:24 10° N 01:03:04 38° ENE 01:07:55 14° SE
Meteor 1-12 Rocket 4.2 00:57:40 10° S 01:03:34 75° E 01:09:24 10° NNE
Cosmos 2034 Rocket 4.1 01:00:27 10° SSE 01:06:36 54° E 01:12:45 10° NNE
CENTAUR R/B 4.0 01:02:36 10° NNW 01:09:45 33° NE 01:14:15 21° E
GOES 2 Rocket 4.5 01:08:10 10° SW 01:11:19 21° S 01:12:20 19° SSE
CZ-4 R/B 3.4 01:08:53 10° SSW 01:12:41 32° W 01:16:28 10° NNW
Okean 1 Rocket 4.1 01:16:18 27° ENE 01:16:18 27° ENE 01:19:31 10° NNE
Okean 2 Rocket 3.2 01:12:35 10° S 01:17:04 81° W 01:21:35 10° N
Ariane Rocket 3.3 01:16:43 26° SE 01:19:13 46° ENE 01:24:03 10° N
Cosmos 1707 2.7 01:15:23 10° N 01:19:13 81° W 01:23:02 10° S
Cosmos 1300 Rocket 3.7 01:15:23 10° S 01:19:45 77° W 01:24:12 10° N
USA 238 DEB 4.2 01:18:53 10° NNW 01:25:54 49° NE 01:29:18 30° ESE
USA 238 4.2 01:18:59 10° NNW 01:26:01 49° NE 01:29:22 30° ESE
DELTA 2 R/B (1) 4.2 01:21:09 10° W 01:26:27 47° SSW 01:29:07 27° SSE
ARGOS 3.1 01:22:08 10° SSE 01:27:29 86° WSW 01:32:53 10° NNW
In-Cosmos 22 4.0 01:24:07 10° N 01:29:27 84° E 01:34:17 13° S
SJ-6B 3.1 01:33:13 45° NE 01:33:13 45° NE 01:36:20 10° N
SL-08 RB Rocket 3.6 01:30:56 26° SSE 01:33:31 81° ENE 01:38:05 10° N
CZ-2C R/B 4.4 01:30:45 10° SSW 01:35:35 40° W 01:40:43 10° NNW
CZ-2C R/B 2.6 01:30:06 10° NNE 01:35:41 75° ESE 01:41:17 10° S
Cosmos 1634 Rocket 4.3 01:37:16 39° ESE 01:38:05 40° E 01:43:47 10° NNE
USA 186 2.4 01:43:19 51° NW 01:43:19 51° NW 01:45:53 10° NNW
Cosmos 1536 Rocket 3.5 01:39:39 10° N 01:44:08 87° W 01:45:33 43° S
SPOT 3 Rocket 4.3 01:44:55 34° NE 01:44:55 34° NE 01:48:59 10° N
Cosmos 2285 Rocket 3.9 01:41:47 10° SSW 01:48:04 82° ESE 01:54:25 10° NNE
Cosmos 1025 Rocket 3.7 01:44:42 10° NNW 01:48:59 55° W 01:51:49 20° SSW
Cosmos 1844 3.8 01:46:09 10° SSW 01:51:51 74° WNW 01:57:31 10° NNE
NOSS 3-2 (A) 4.0 01:45:13 10° NNW 01:53:00 77° ENE 01:56:29 40° SE
Meteor 2-13 Rocket 4.4 01:48:06 10° N 01:54:13 64° E 01:55:29 52° SE
ISS -0.9 01:52:53 10° NW 01:54:37 13° NNW 01:55:46 12° N
Cosmos 1844 Rocket 3.4 01:51:04 10° SW 01:56:29 53° WNW 02:01:57 10° NNE
Cosmos 1092 Rocket 3.8 01:57:51 10° N 02:04:02 74° E 02:05:04 61° SE
Cosmos 2195 Rocket 4.3 01:58:44 10° N 02:04:56 67° E 02:05:23 65° ESE
Cosmos 2026 Rocket 4.0 02:02:21 10° N 02:08:36 61° ENE 02:08:36 61° ENE
MetOp-A 4.2 02:07:40 56° S 02:08:46 76° WSW 02:14:09 10° NNW
CZ-2C R/B 3.2 02:05:39 10° W 02:07:04 20° WSW 02:07:04 20° WSW
USA 234 3.1 02:04:41 18° NE 02:09:48 90° ESE 02:16:22 10° SW
Cosmos 1125 Rocket 4.4 02:05:59 10° SW 02:11:06 48° WNW 02:16:15 10° N
Milstar 3 Cent rocket 3.6 02:10:32 10° SW 02:14:14 25° SSW 02:14:14 25° SSW
Cosmos 1428 Rocket 4.5 02:13:20 10° N 02:19:00 66° NE 02:19:00 66° NE
BREEZE-M DEB (TANK) 4.4 02:03:12 10° WNW 02:21:29 76° SW 02:22:39 62° SSE
Cosmos 1833 Rocket 4.4 02:19:16 10° N 02:21:52 21° NNE 02:21:52 21° NNE
NOSS 3-4 (A) 3.4 02:22:44 10° SW 02:28:35 74° NW 02:34:46 10° NNE
NOSS 3-4 (C) 3.4 02:22:51 10° SW 02:28:41 75° NW 02:34:52 10° NNE
NOSS 3-2 (C) 4.0 02:20:54 10° NNW 02:28:42 82° ENE 02:29:49 69° SE
Resurs 01 Rocket 3.7 02:36:50 22° N 02:36:50 22° N 02:38:27 10° N
ATLAS 2AS CENTAUR R/B 3.3 02:43:24 10° SW 02:51:15 66° NW 02:59:10 10° NNE
BREEZE-M DEB (TANK) 4.3 02:49:17 10° WNW 02:53:57 63° SW 02:54:11 63° SSW
CENTAUR R/B 3.2 02:52:51 10° NW 03:01:11 72° WSW 03:01:27 72° SW
Cosmos 2082 Rocket 4.3 03:03:51 10° N 03:05:22 17° N 03:05:22 17° N
ATLAS 3B R/B 3.7 03:02:47 10° NNW 03:07:18 38° N 03:07:18 38° N
USA 267 3.9 08:17:46 10° NE 08:22:28 51° NNE 08:22:28 51° NNE
Cosmos 1697 Rocket 4.3 08:48:35 26° N 08:48:35 26° N 08:51:13 10° N
Cosmos 1980 Rocket 3.1 08:52:46 44° NNE 08:52:46 44° NNE 08:56:35 10° NNE
BREEZE-M DEB (TANK) 4.1 08:55:57 61° S 08:56:48 65° SSE 09:01:20 10° ENE
USA 234 4.4 08:50:53 10° E 08:56:50 39° NNE 09:02:47 10° NNW
Cosmos 2322 Rocket 4.1 08:55:32 17° SE 08:58:10 24° E 09:02:36 10° NE
Cosmos 2263 Rocket 3.9 08:56:24 10° N 09:01:23 31° ENE 09:06:21 10° ESE
SL-4 R/B 3.7 09:08:18 33° E 09:08:18 33° E 09:11:34 10° ENE
SL-16 R/B 3.5 09:05:31 29° SE 09:07:17 36° ESE 09:12:25 10° NE
Cosmos 2228 Rocket 4.4 09:09:42 37° NE 09:09:42 37° NE 09:12:32 10° NNE
Cosmos 1934 Rocket 3.8 09:05:58 10° N 09:12:03 83° E 09:12:49 69° SSE
ADEOS II 4.1 09:07:33 10° N 09:09:06 18° NNW 09:09:06 18° NNW
ARIANE 5 R/B 3.7 09:09:47 10° N 09:12:41 33° N 09:12:41 33° N
CZ-2C R/B 3.9 09:16:12 10° NNE 09:20:57 36° E 09:24:58 14° SSE
ASTEX 1 4.2 09:15:58 10° N 09:19:17 42° N 09:19:17 42° N
IDEFIX/ARIANE 42P 3.0 09:15:54 10° N 09:20:03 53° NNW 09:20:03 53° NNW
Cosmos 1763 Rocket 4.4 09:21:34 31° SSE 09:23:36 45° ESE 09:28:39 10° NNE
SJ 16-02 2.4 09:25:31 10° N 09:29:44 44° ENE 09:33:55 10° SE
Cosmos 44 4.5 09:33:21 28° NNW 09:33:21 28° NNW 09:36:08 10° NNE
Meteor 1-14 Rocket 4.0 09:26:47 10° NNW 09:32:16 72° W 09:32:16 72° W
PSLV R/B 4.4 09:29:22 10° NNE 09:33:24 45° E 09:34:43 33° SE
Meteor 2-6 Rocket 4.1 09:32:38 53° S 09:34:03 90° ESE 09:39:53 10° N
DEBRIS 4.2 09:34:58 28° NE 09:35:01 28° NE 09:38:48 10° E
H-2A R/B 2.6 09:30:48 10° SSE 09:35:02 57° ENE 09:39:25 10° N
Meteor 1-5 Rocket 4.5 09:29:58 10° N 09:35:15 63° E 09:40:38 10° SSE
Cosmos 1238 Rocket 3.8 09:30:58 10° NNW 09:37:27 67° W 09:39:04 48° SSW
Cosmos 1605 Rocket 4.0 09:32:56 10° N 09:39:22 87° E 09:45:46 10° S
Cosmos 1535 Rocket 4.5 09:34:29 10° NNW 09:40:46 61° W 09:43:11 38° SSW
BREEZE-M DEB (TANK) 4.3 09:39:27 43° W 09:42:19 76° NNW 10:08:46 10° ENE
Landsat 5 3.7 09:41:04 10° SSE 09:45:34 80° ENE 09:50:05 10° N
Lacrosse 5 3.8 09:45:25 16° NNW 09:45:54 16° NNW 09:49:05 10° NNE
ERS-2 3.5 09:44:41 10° SE 09:48:06 39° ENE 09:51:33 10° N
Helios 1B 4.4 09:48:16 73° W 09:48:16 73° W 09:52:28 10° NNW
PAYLOAD A 3.8 09:43:30 10° NNE 09:48:12 77° ESE 09:50:29 31° S
X-37B 2.4 09:51:11 25° N 09:51:14 25° N 09:53:58 10° ENE
Cosmos 468 Rocket 3.9 09:50:04 41° SSW 09:51:58 85° WNW 09:57:17 10° NNE
ALOS 4.0 09:56:34 10° NNE 10:00:44 32° E 10:04:53 10° SSE
CSL-04 DEB 4.4 09:59:50 10° S 10:04:05 66° WSW 10:08:25 10° NNW
USA 267 4.5 10:01:20 10° NNE 10:06:40 28° NNW 10:09:48 19° WNW
Cosmos 1536 3.8 10:03:34 10° N 10:07:32 50° E 10:11:29 10° SSE
Cosmos 1727 Rocket 3.9 10:04:10 10° SSW 10:10:29 71° W 10:16:49 10° N
Meteor 1-11 Rocket 3.7 10:09:15 10° N 10:15:02 89° W 10:20:39 10° S
Cosmos 2100 Rocket 4.4 10:09:40 10° N 10:16:02 67° E 10:22:20 10° SSE
Cosmos 921 Rocket 4.4 10:20:07 20° NW 10:20:07 20° NW 10:22:44 10° NNW
Cosmos 1812 4.0 10:21:49 23° WNW 10:21:49 23° WNW 10:24:16 10° NNW
deb Chang Zheng 4 3.7 10:17:03 10° NNE 10:21:20 72° ESE 10:25:34 10° S
SL-8 R/B 3.7 10:17:55 18° NW 10:21:29 81° NNE 10:26:15 10° ESE
Meteor 1-27 Rocket 3.8 10:16:17 10° SSW 10:22:11 72° W 10:28:07 10° N
Cosmos 2360 Rocket 2.4 10:19:09 10° SSW 10:24:47 72° ESE 10:30:26 10° NNE
Cosmos 1898 Rocket 3.4 10:21:09 10° NNW 10:26:25 78° WSW 10:31:41 10° SSE
ATLAS 2AS CENTAUR R/B 3.9 10:19:45 10° NNW 10:26:49 44° NE 10:33:17 10° ESE
ADEOS Rocket 3.1 10:20:31 10° SSE 10:27:30 84° WSW 10:33:48 10° NNW
Cosmos 1707 Rocket 3.7 10:26:34 17° SSW 10:29:39 46° W 10:33:51 10° N
Cosmos 1666 2.7 10:26:08 10° NNW 10:29:51 54° W 10:33:32 10° S
Cosmos 1459 Rocket 4.0 10:25:01 10° N 10:31:07 81° E 10:37:08 10° S
Cosmos 1980 Rocket 4.1 10:34:34 12° WNW 10:35:45 12° NW 10:38:06 10° NNW
SAR-Lupe-4 3.9 10:32:23 10° SSE 10:35:56 69° ENE 10:39:31 10° N
Cosmos 858 Rocket 4.4 10:31:40 10° NNW 10:36:53 88° WSW 10:42:04 10° SSE
FENGYUN 3A 3.8 10:32:19 10° NNE 10:37:44 81° ESE 10:43:07 10° S
Cosmos 2208 Rocket 4.0 10:32:51 10° SSW 10:38:07 90° ESE 10:43:21 10° NNE
USA 234 3.3 10:33:08 10° SSE 10:39:36 64° SW 10:46:04 10° NW
Cosmos 2322 Rocket 2.6 10:37:25 15° SW 10:41:52 44° WNW 10:47:18 10° N
USA 32 4.3 10:39:52 10° NNW 10:44:51 46° W 10:49:51 10° SSW
FALCON 9 DEB 4.5 10:43:18 18° WNW 10:44:53 26° NNW 10:47:50 10° NNE
Cosmos 2263 Rocket 2.7 10:40:12 10° NW 10:45:16 35° WSW 10:50:20 10° SSW
SL-4 R/B 3.1 10:43:55 18° W 10:46:56 39° NNW 10:51:25 10° NE
SAR-Lupe-1 4.0 10:44:31 10° SSE 10:48:04 84° WSW 10:51:40 10° NNW
Meteor 1-4 Rocket 4.4 10:50:45 13° WNW 10:50:45 13° WNW 10:52:19 10° NW
Cosmos 1733 Rocket 3.0 10:46:36 10° NNW 10:50:55 65° W 10:55:10 10° S
Cosmos 1844 Rocket 3.7 10:45:52 10° NNW 10:51:22 51° ENE 10:56:52 10° SE
SL-16 R/B 3.1 10:47:26 14° WSW 10:51:23 30° WNW 10:56:20 10° N
Cosmos 1937 Rocket 3.4 10:46:43 10° NNW 10:51:48 63° WSW 10:56:51 10° S
Cosmos 2237 4.3 10:47:21 10° SW 10:52:58 61° WNW 10:58:39 10° NNE
Cosmos 1814 Rocket 4.0 10:50:30 10° SSW 10:55:37 63° WNW 11:00:51 10° NNE
ADEOS 3.8 10:50:59 10° N 10:56:02 51° WNW 11:01:03 10° SW
Cosmos 44 Rocket 3.5 10:51:52 10° SW 10:56:26 51° NW 11:01:08 10° NNE
Cosmos 841 Rocket 3.8 10:51:49 10° SW 10:56:50 48° WNW 11:01:55 10° N
CZ-2C R/B 3.6 10:54:46 10° NNW 10:58:56 26° WNW 11:03:09 10° WSW
Gbstr 26 Del rocket 4.3 10:55:31 10° NW 11:03:26 76° SW 11:10:10 10° SE
Cosmos 1862 Rocket 4.0 10:59:44 10° SSW 11:03:52 41° W 11:08:01 10° N
Cosmos 2173 Rocket 4.2 10:58:00 10° NNW 11:04:08 54° W 11:10:18 10° SSW
SJ-12 4.0 11:00:37 10° NNE 11:04:46 88° ESE 11:08:54 10° SSW
CZ-4B R/B 2.1 11:04:00 10° SSW 11:06:44 28° W 11:09:33 10° NW
SJ 16-02 3.0 11:05:33 10° WNW 11:07:52 14° W 11:10:10 10° SW
Cosmos 1743 2.6 11:05:33 10° NNW 11:09:20 71° W 11:13:07 10° S
H-2A R/B 3.9 11:09:57 10° WSW 11:11:22 11° W 11:12:47 10° WNW
Cosmos 2219 Rocket 2.7 11:09:32 10° S 11:15:07 66° ESE 11:20:46 10° NNE
Cosmos 1689 Rocket 2.0 11:12:17 10° S 11:15:11 59° W 11:18:07 10° NNW
COSMOS 2428 3.3 11:16:13 10° S 11:21:51 65° ESE 11:27:31 10° NNE
